Flag for Botswana Weather past 2 weeks in Francistown, Botswana

Now
95 °F

Scattered clouds.


Feels Like: 91 °F
Forecast: 57 / 89 °F
Wind: 6 mph from Southwest

Location: Francistown Airport

Current Time: Sep 30, 2014 at 5:38:49 PM

Latest Report: Sep 30, 2014 at 5:00 PM


Visibility: N/A

Pressure: 29.89 "Hg

Humidity: 18%

Dew point: 45 °F

Location of FrancistownLocation

Historic Weather in Francistown — Graph

°F

Francistown temperature yesterday

Maximum temperature yesterday: 97 °F (at 3:00 PM)
Minimum temperature yesterday: 68 °F (at 6:00 AM)
Average temperature yesterday: 86 °F

Past Weeks' High & Low Weather Summary

 TemperatureHumidityPressure
High99 °F (Sep 18, 2:00 PM)94% (Sep 20, 11:00 PM)30.30 "Hg (Sep 20, 11:00 PM)
Low46 °F (Sep 26, 6:00 AM)8% (Sep 18, 2:00 PM)29.89 "Hg (Sep 17, 4:00 PM)
Average75 °F36%30.09 "Hg
* Reported Sep 15 4:00 PM — Sep 30 4:00 PM, Francistown, Weather by CustomWeather, © 2014

Note: Actual official high and low records may vary slightly from our data, if they occured in-between our weather recording intervals... More about our weather records

Advertising

Francistown weather history for previous 24 hours

 ConditionsComfort  
Time TempWeatherWind HumidityBarometerVisibility
4:00 PM
Sep 30
95 °FScattered clouds.13 mph19%29.89 "HgN/A
3:00 PM95 °FSunny.14 mph20%29.89 "Hg10 mi
2:00 PM97 °FScattered clouds.17 mph20%29.92 "HgN/A
1:00 PM95 °FPassing clouds.12 mph20%29.95 "HgN/A
12:00 PM93 °FSunny.16 mph23%29.98 "Hg10 mi
11:00 AM90 °FSunny.9 mph26%30.01 "Hg10 mi
10:00 AM86 °FSunny.8 mph31%30.04 "Hg10 mi
9:00 AM79 °FSunny.7 mph51%30.04 "Hg10 mi
8:00 AM72 °FSunny.3 mph65%30.01 "Hg10 mi
7:00 AM68 °FSunny.2 mph73%30.01 "Hg10 mi
6:00 AM61 °FSunny.3 mph83%29.98 "Hg10 mi
9:00 PM
Sep 29
84 °FPassing clouds.7 mph43%29.98 "HgN/A
8:00 PM84 °FPassing clouds.9 mph43%29.95 "HgN/A
7:00 PM84 °FPassing clouds.2 mph19%29.92 "HgN/A
6:00 PM91 °FPassing clouds.6 mph16%29.92 "HgN/A
5:00 PM95 °FScattered clouds.9 mph14%29.89 "HgN/A
Weather by CustomWeather, © 2014

See weather overviewHow to use our weather pages